EW8073 Weather Reports


time (UTC)temp
C
wind
direction
speed
KPH
gust
KPH
rain 1hr
cm
rain 24hr
cm
rain mn
cm
humidity
%
barometer
mb
20260902163802 26 214 0.0 0.0 0.00 0.00 0.00 37 1018.0
20260902163256 26 217 0.0 0.0 0.00 0.00 0.00 39 1018.0
20260902162750 25 217 0.0 3.2 0.00 0.00 0.00 38 1018.0
20260902162244 25 217 0.0 4.8 0.00 0.00 0.00 40 1018.1
20260902161740 25 217 0.0 4.8 0.00 0.00 0.00 41 1018.0
20260902161233 25 233 0.0 0.0 0.00 0.00 0.00 41 1018.0
20260902160726 25 234 0.0 1.6 0.00 0.00 0.00 42 1018.0
20260902160220 24 234 0.0 1.6 0.00 0.00 0.00 44 1018.1
20260902155714 24 234 0.0 0.0 0.00 0.00 0.00 45 1018.1
20260902155208 23 234 0.0 1.6 0.00 0.00 0.00 45 1018.1
20260902154156 23 234 0.0 0.0 0.00 0.00 0.00 48 1018.1
20260902153145 22 234 0.0 0.0 0.00 0.00 0.00 51 1018.1
20260902152639 22 234 0.0 0.0 0.00 0.00 0.00 53 1018.0
20260902152133 22 234 0.0 0.0 0.00 0.00 0.00 53 1018.1
20260902151628 22 234 0.0 0.0 0.00 0.00 0.00 55 1018.0
20260902151120 21 235 0.0 0.0 0.00 0.00 0.00 56 1018.1
20260902150616 21 235 0.0 0.0 0.00 0.00 0.00 57 1018.1
20260902150109 20 235 0.0 0.0 0.00 0.00 0.00 58 1018.1
20260902145604 20 235 0.0 0.0 0.00 0.00 0.00 58 1018.1
20260902145058 20 235 0.0 0.0 0.00 0.00 0.00 59 1018.1
20260902144550 20 235 1.6 6.4 0.00 0.00 0.00 60 1018.1
20260902144044 19 247 1.6 6.4 0.00 0.00 0.00 60 1018.2
20260902143032 18 240 0.0 0.0 0.00 0.00 0.00 64 1018.2
20260902142526 17 318 0.0 0.0 0.00 0.00 0.00 69 1018.1
20260902141514 17 323 0.0 0.0 0.00 0.00 0.00 72 1018.1
20260902140504 16 324 0.0 0.0 0.00 0.00 0.00 73 1018.0
20260902135450 15 324 0.0 0.0 0.00 0.00 0.00 73 1018.0
20260902134944 15 324 0.0 0.0 0.00 0.00 0.00 73 1018.1
20260902134438 15 324 0.0 0.0 0.00 0.00 0.00 73 1018.1
20260902133932 15 324 0.0 0.0 0.00 0.00 0.00 72 1018.0
20260902133428 15 324 0.0 0.0 0.00 0.00 0.00 72 1018.0
20260902132922 14 324 0.0 0.0 0.00 0.00 0.00 72 1018.0
20260902132416 14 324 0.0 0.0 0.00 0.00 0.00 71 1018.0
20260902131910 14 324 0.0 0.0 0.00 0.00 0.00 71 1017.9
20260902130856 14 324 0.0 0.0 0.00 0.00 0.00 70 1017.8
20260902130350 14 324 0.0 0.0 0.00 0.00 0.00 69 1017.6
20260902125844 14 324 0.0 0.0 0.00 0.00 0.00 69 1017.6
20260902125338 15 324 0.0 0.0 0.00 0.00 0.00 69 1017.5
20260902124832 15 324 0.0 0.0 0.00 0.00 0.00 68 1017.5
20260902124326 15 324 0.0 0.0 0.00 0.00 0.00 68 1017.6
20260902123821 15 324 0.0 0.0 0.00 0.00 0.00 68 1017.5
20260902123316 15 324 0.0 0.0 0.00 0.00 0.00 68 1017.5
20260902122809 15 324 0.0 0.0 0.00 0.00 0.00 68 1017.4
20260902122305 15 324 0.0 0.0 0.00 0.00 0.00 68 1017.4
20260902121250 15 324 0.0 0.0 0.00 0.00 0.00 67 1017.2
20260902120746 15 324 0.0 0.0 0.00 0.00 0.00 67 1017.1
20260902120246 15 324 0.0 0.0 0.00 0.00 0.00 67 1017.1
20260902115744 15 324 0.0 0.0 0.00 0.00 0.00 67 1017.1
20260902115242 15 324 0.0 0.0 0.00 0.00 0.00 67 1017.1
20260902114741 15 324 0.0 0.0 0.00 0.00 0.00 67 1017.1
20260902114242 15 324 0.0 0.0 0.00 0.00 0.00 67 1017.1
20260902113238 16 324 0.0 0.0 0.00 0.00 0.00 66 1017.1
20260902112736 16 324 0.0 0.0 0.00 0.00 0.00 66 1017.1
20260902111736 16 324 0.0 0.0 0.00 0.00 0.00 66 1017.1
20260902111236 16 324 0.0 0.0 0.00 0.00 0.00 66 1016.9
20260902110735 16 324 0.0 0.0 0.00 0.00 0.00 66 1016.8
20260902105731 16 324 0.0 0.0 0.00 0.00 0.00 66 1016.8
20260902105232 16 324 0.0 0.0 0.00 0.00 0.00 66 1016.7
20260902104732 16 324 0.0 0.0 0.00 0.00 0.00 65 1016.7
20260902104232 16 324 0.0 0.0 0.00 0.00 0.00 65 1016.8
20260902103731 16 328 0.0 0.0 0.00 0.00 0.00 65 1016.8
20260902103231 16 328 0.0 0.0 0.00 0.00 0.00 65 1016.7
20260902102231 16 328 0.0 0.0 0.00 0.00 0.00 65 1016.7
20260902101733 16 328 0.0 0.0 0.00 0.00 0.00 65 1016.7
20260902101231 16 328 0.0 0.0 0.00 0.00 0.00 64 1016.7
20260902100732 16 328 0.0 0.0 0.00 0.00 0.00 64 1016.6
20260902100231 16 328 0.0 0.0 0.00 0.00 0.00 64 1016.7
20260902095733 16 328 0.0 0.0 0.00 0.00 0.00 64 1016.7
20260902095232 16 329 0.0 0.0 0.00 0.00 0.00 63 1016.7
20260902094732 16 329 0.0 0.0 0.00 0.00 0.00 63 1016.7
20260902094232 16 329 0.0 0.0 0.00 0.00 0.00 63 1016.7
20260902093732 16 329 0.0 0.0 0.00 0.00 0.00 63 1016.8
20260902093233 16 329 0.0 0.0 0.00 0.00 0.00 62 1016.8
20260902092725 17 329 0.0 0.0 0.00 0.00 0.00 62 1016.9
20260902092221 17 329 0.0 0.0 0.00 0.00 0.00 62 1016.8
20260902091714 17 329 0.0 0.0 0.00 0.00 0.00 62 1016.9
20260902091209 17 329 0.0 0.0 0.00 0.00 0.00 62 1016.9
20260902090704 17 329 0.0 0.0 0.00 0.00 0.00 61 1016.8
20260902090157 17 329 0.0 0.0 0.00 0.00 0.00 61 1016.8
20260902085652 17 329 0.0 0.0 0.00 0.00 0.00 60 1016.6
20260902084640 17 329 0.0 0.0 0.00 0.00 0.00 60 1016.6
20260902084133 17 329 0.0 0.0 0.00 0.00 0.00 60 1016.6
20260902083121 17 329 0.0 0.0 0.00 0.00 0.00 60 1016.6
20260902082615 17 329 0.0 0.0 0.00 0.00 0.00 59 1016.6
20260902082110 17 329 0.0 0.0 0.00 0.00 0.00 59 1016.6
20260902081605 18 329 0.0 0.0 0.00 0.00 0.00 59 1016.6
20260902081058 18 329 0.0 0.0 0.00 0.00 0.00 59 1016.6
20260902080552 18 329 0.0 0.0 0.00 0.00 0.00 59 1016.7
20260902080045 18 329 0.0 0.0 0.00 0.00 0.00 59 1016.7
20260902075035 18 329 0.0 0.0 0.00 0.00 0.00 59 1016.8
20260902074528 18 329 0.0 0.0 0.00 0.00 0.00 59 1016.8
20260902074022 18 329 0.0 0.0 0.00 0.00 0.00 59 1016.8
20260902073515 18 329 0.0 0.0 0.00 0.00 0.00 59 1016.8
20260902073010 18 329 0.0 0.0 0.00 0.00 0.00 59 1016.8
20260902072503 18 329 0.0 0.0 0.00 0.00 0.00 58 1016.7
20260902071959 19 329 0.0 0.0 0.00 0.00 0.00 58 1016.6
20260902070946 19 329 0.0 0.0 0.00 0.00 0.00 57 1016.5
20260902070439 19 329 0.0 0.0 0.00 0.00 0.00 57 1016.4
20260902065939 19 329 0.0 0.0 0.00 0.00 0.00 57 1016.4
20260902064437 19 328 0.0 0.0 0.00 0.00 0.00 59 1016.4
20260902063933 19 329 0.0 0.0 0.00 0.00 0.00 59 1016.4
20260902062934 19 328 0.0 0.0 0.00 0.00 0.00 61 1016.2
20260902061929 19 338 0.0 0.0 0.00 0.00 0.00 61 1016.2
20260902061427 19 338 0.0 0.0 0.00 0.00 0.00 61 1016.1
20260902060427 19 338 0.0 0.0 0.00 0.00 0.00 61 1016.0
20260902055927 20 337 0.0 0.0 0.00 0.00 0.00 60 1016.2
20260902055426 20 13 0.0 0.0 0.00 0.00 0.00 59 1016.1
20260902054924 20 13 0.0 0.0 0.00 0.00 0.00 59 1016.1
20260902054423 20 13 0.0 0.0 0.00 0.00 0.00 59 1016.1
20260902053424 20 13 0.0 0.0 0.00 0.00 0.00 58 1016.1
20260902052923 20 13 0.0 0.0 0.00 0.00 0.00 58 1016.1
20260902052424 20 13 0.0 0.0 0.00 0.00 0.00 57 1016.1
20260902051424 20 13 0.0 0.0 0.00 0.00 0.00 57 1016.2
20260902050924 20 13 0.0 0.0 0.00 0.00 0.00 57 1016.2
20260902050424 21 13 0.0 0.0 0.00 0.00 0.00 57 1016.4
20260902045923 21 13 0.0 0.0 0.00 0.00 0.00 56 1016.4
20260902044924 21 13 0.0 0.0 0.00 0.00 0.00 56 1016.4
20260902043924 21 13 0.0 0.0 0.00 0.00 0.00 55 1016.5
20260902043417 21 13 0.0 0.0 0.00 0.00 0.00 55 1016.6
20260902042911 21 13 0.0 0.0 0.00 0.00 0.00 54 1016.7
20260902042405 21 5 0.0 0.0 0.00 0.00 0.00 54 1016.7
20260902041858 22 5 0.0 0.0 0.00 0.00 0.00 54 1016.7
20260902041354 22 5 0.0 0.0 0.00 0.00 0.00 53 1016.7
20260902040847 22 5 0.0 0.0 0.00 0.00 0.00 53 1016.7
20260902040340 22 5 0.0 0.0 0.00 0.00 0.00 53 1016.7
20260902035835 22 5 0.0 0.0 0.00 0.00 0.00 53 1016.6
20260902033811 22 5 0.0 0.0 0.00 0.03 0.00 51 1016.7
20260902033305 22 5 0.0 0.0 0.00 0.03 0.00 51 1016.7
20260902032758 23 5 0.0 0.0 0.00 0.03 0.00 50 1016.6
20260902031746 23 295 0.0 0.0 0.00 0.05 0.00 50 1016.6
20260902031241 23 295 0.0 0.0 0.00 0.08 0.00 50 1016.7
20260902030734 23 295 0.0 0.0 0.00 0.08 0.00 49 1016.7
20260902025724 24 295 0.0 0.0 0.00 0.08 0.00 48 1016.6
20260902024710 24 295 0.0 0.0 0.00 0.08 0.00 46 1016.5
20260902024205 25 295 0.0 0.0 0.00 0.08 0.00 46 1016.2
20260902023659 25 295 0.0 0.0 0.00 0.08 0.00 47 1016.1
20260902023153 25 295 0.0 0.0 0.00 0.08 0.00 46 1016.1
20260902022647 25 295 0.0 0.0 0.00 0.08 0.00 45 1016.1
20260902022142 25 295 0.0 0.0 0.00 0.08 0.00 44 1016.1
20260902021634 25 293 0.0 0.0 0.00 0.08 0.00 43 1016.1
20260902021129 26 293 0.0 0.0 0.00 0.08 0.00 42 1016.1
20260902020623 26 293 0.0 0.0 0.00 0.10 0.00 41 1016.0
20260902020117 26 293 0.0 0.0 0.00 0.15 0.00 41 1016.0
20260902015104 26 293 0.0 0.0 0.00 0.15 0.00 39 1015.8
20260902014559 26 293 0.0 0.0 0.00 0.18 0.00 38 1015.8
20260902014054 26 293 0.0 0.0 0.00 0.18 0.00 38 1015.8
20260902013547 27 293 0.0 0.0 0.00 0.18 0.00 38 1015.9
20260902013041 27 293 0.0 0.0 0.00 0.18 0.00 37 1015.7
20260902012537 27 293 0.0 0.0 0.00 0.20 0.00 37 1015.7
20260902012029 27 293 0.0 0.0 0.00 0.20 0.00 37 1015.7
20260902011523 27 293 0.0 0.0 0.00 0.20 0.00 36 1015.5
20260902011017 27 293 0.0 0.0 0.00 0.20 0.00 36 1015.5
20260902010512 28 293 0.0 0.0 0.00 0.20 0.00 35 1015.4
20260902010006 28 293 0.0 0.0 0.00 0.20 0.00 35 1015.4
20260902005459 28 293 0.0 0.0 0.00 0.20 0.00 34 1015.3
20260902004953 28 292 0.0 0.0 0.00 0.20 0.00 33 1015.4
20260902003942 29 292 0.0 0.0 0.00 0.20 0.00 32 1015.4
20260902002929 29 292 0.0 0.0 0.00 0.20 0.00 32 1015.4
20260902002422 29 292 0.0 0.0 0.00 0.20 0.00 31 1015.3
20260902001916 30 292 0.0 0.0 0.00 0.20 0.00 29 1015.3
20260902001411 30 292 0.0 0.0 0.00 0.20 0.00 29 1015.4
20260902000905 30 292 0.0 0.0 0.00 0.20 0.00 29 1015.4
20260902000359 30 292 0.0 0.0 0.00 0.20 0.00 28 1015.4
20260901235346 30 292 0.0 0.0 0.00 0.20 0.00 29 1015.4
20260901234840 30 292 0.0 0.0 0.00 0.20 0.00 29 1015.4
20260901234335 30 290 0.0 0.0 0.00 0.20 0.00 32 1015.5
20260901233830 29 290 0.0 0.0 0.00 0.20 0.00 29 1015.5
20260901233323 29 290 0.0 0.0 0.00 0.20 0.00 30 1015.5
20260901232817 30 290 0.0 0.0 0.00 0.20 0.00 28 1015.5
20260901231805 30 294 0.0 0.0 0.00 0.20 0.00 28 1015.5
20260901231259 30 294 0.0 0.0 0.00 0.20 0.00 26 1015.5
20260901230754 30 294 0.0 0.0 0.00 0.20 0.00 27 1015.5
20260901230246 30 271 0.0 0.0 0.00 0.20 0.00 30 1015.5
20260901225234 30 271 0.0 0.0 0.00 0.20 0.00 28 1015.5
20260901224731 30 271 0.0 0.0 0.00 0.20 0.00 27 1015.7
20260901224231 30 271 0.0 0.0 0.00 0.20 0.00 29 1015.7
20260901223730 30 0 0.0 0.0 0.00 0.20 0.00 28 1015.7
20260901222225 30 283 0.0 0.0 0.00 0.20 0.00 30 1015.8
20260901221723 30 275 0.0 0.0 0.00 0.20 0.00 29 1015.8
20260901221221 30 275 0.0 0.0 0.00 0.20 0.00 36 1015.8
20260901220723 30 275 0.0 0.0 0.00 0.20 0.00 33 1015.9
20260901220218 30 275 0.0 0.0 0.00 0.20 0.00 30 1015.9
20260901215717 30 275 0.0 0.0 0.00 0.20 0.00 30 1016.0
20260901215217 30 275 0.0 0.0 0.00 0.20 0.00 31 1016.0
20260901214717 30 223 0.0 0.0 0.00 0.20 0.00 29 1016.0
20260901214215 30 221 0.0 0.0 0.00 0.20 0.00 29 1016.0
20260901213211 30 219 0.0 0.0 0.00 0.20 0.00 28 1016.1
20260901212711 31 209 0.0 0.0 0.00 0.20 0.00 29 1016.1
20260901212209 31 209 0.0 0.0 0.00 0.20 0.00 31 1016.1
20260901211205 30 209 0.0 0.0 0.00 0.20 0.00 32 1016.1
20260901210704 30 210 0.0 0.0 0.00 0.20 0.00 33 1016.2
20260901210205 30 210 0.0 0.0 0.00 0.20 0.00 33 1016.4
20260901205704 28 210 0.0 0.0 0.00 0.20 0.00 35 1016.4
20260901204705 29 210 0.0 0.0 0.00 0.20 0.00 34 1016.5
20260901204204 29 209 0.0 0.0 0.00 0.20 0.00 30 1016.5
20260901203705 30 98 0.0 0.0 0.00 0.20 0.00 33 1016.6
20260901203206 30 98 0.0 0.0 0.00 0.20 0.00 32 1016.6
20260901202700 29 98 0.0 0.0 0.00 0.20 0.00 34 1016.6
20260901202200 29 91 0.0 0.0 0.00 0.20 0.00 35 1016.6
20260901200700 28 146 0.0 0.0 0.00 0.20 0.00 33 1016.9
20260901200200 29 148 0.0 0.0 0.00 0.20 0.00 32 1016.9
20260901195200 28 192 0.0 0.0 0.00 0.20 0.00 37 1017.1
20260901194700 28 192 0.0 0.0 0.00 0.20 0.00 37 1017.1
20260901194156 27 192 0.0 0.0 0.00 0.20 0.00 38 1017.1
20260901193656 27 192 0.0 0.0 0.00 0.20 0.00 39 1017.2
20260901193157 27 195 0.0 0.0 0.00 0.20 0.00 40 1017.2
20260901192654 27 195 0.0 0.0 0.00 0.20 0.00 39 1017.3
20260901192154 27 182 0.0 0.0 0.00 0.20 0.00 40 1017.3
20260901191652 26 184 0.0 0.0 0.00 0.20 0.00 40 1017.4
20260901190650 26 184 0.0 0.0 0.00 0.20 0.00 42 1017.5
20260901190149 26 184 0.0 0.0 0.00 0.20 0.00 43 1017.5
20260901185648 26 182 0.0 0.0 0.00 0.20 0.00 40 1017.8
20260901184642 26 193 0.0 3.2 0.00 0.20 0.00 46 1017.8
20260901184140 26 193 0.0 0.0 0.00 0.20 0.00 48 1017.8
20260901183640 25 186 0.0 0.0 0.00 0.20 0.00 48 1018.0
20260901183140 25 229 0.0 0.0 0.00 0.20 0.00 51 1018.0
20260901182638 25 229 0.0 0.0 0.00 0.20 0.00 49 1018.0
20260901182141 25 228 0.0 0.0 0.00 0.20 0.00 51 1018.1
20260901181635 25 228 0.0 0.0 0.00 0.20 0.00 53 1018.2
20260901181128 25 229 0.0 0.0 0.00 0.20 0.00 53 1018.3
20260901180116 24 231 0.0 0.0 0.00 0.20 0.00 55 1018.6
20260901175612 24 231 0.0 0.0 0.00 0.20 0.00 56 1018.6
20260901175105 23 225 0.0 0.0 0.00 0.20 0.00 58 1018.6
20260901174053 23 225 0.0 0.0 0.00 0.20 0.00 60 1018.7
20260901173546 23 225 0.0 0.0 0.00 0.20 0.00 63 1018.8
20260901173040 23 225 0.0 0.0 0.00 0.20 0.00 63 1018.8
20260901172028 22 235 0.0 0.0 0.00 0.20 0.00 66 1018.8
20260901171522 22 235 0.0 1.6 0.00 0.20 0.00 67 1018.9
20260901171018 22 235 0.0 1.6 0.00 0.20 0.00 67 1019.0
20260901170512 21 237 0.0 1.6 0.00 0.20 0.00 70 1019.0
20260901170005 21 237 0.0 3.2 0.00 0.20 0.00 72 1018.9
20260901165458 21 237 0.0 3.2 0.00 0.20 0.00 72 1019.0
20260901164446 20 249 0.0 1.6 0.00 0.20 0.00 76 1019.2